Wind_Speed
65 66 67 69 70 71 70 70 70 70 71 73 76 79 82 84 86 88 91 94 96 99 100 101 103 105 107 110 113 116 119 124 128 129 129 128 127 126 126 127 128 129 129 132 134 135 135 137 139 141 143 145 146 147 146 145 145 145 145 144 144 143 142
61 62 64 66 67 68 68 68 68 68 67 68 70 73 77 81 83 85 87 89 91 94 97 98 99 100 103 105 108 111 114 118 122 127 129 128 127 126 125 125 126 127 127 129 132 134 135 137 139 140 141 142 144 146 147 146 146 145 145 145 145 144 143
57 59 60 61 63 64 66 66 66 65 66 66 67 69 72 76 79 82 83 84 86 88 91 94 96 98 99 101 103 105 109 112 116 122 126 128 128 127 126 125 125 125 125 126 130 133 134 136 138 140 140 140 142 144 146 148 147 146 145 145 145 145 144
54 55 57 58 59 61 62 63 63 64 64 64 65 66 68 71 74 77 79 80 81 83 86 89 92 95 96 97 98 100 103 106 111 116 121 125 127 128 127 127 126 125 124 125 127 130 133 135 137 138 140 140 141 142 143 146 147 146 145 144 145 145 145
50 53 54 55 56 57 58 59 61 62 62 62 63 64 65 67 69 72 75 77 78 80 82 84 87 90 92 93 94 96 98 101 106 110 115 120 124 127 128 128 128 127 125 125 126 128 131 133 135 137 138 139 139 140 141 142 145 146 146 145 144 145 146
48 49 51 52 53 53 54 56 58 59 60 61 62 62 63 64 66 69 72 74 76 77 78 80 82 84 86 88 90 92 95 98 101 105 110 114 119 124 127 128 129 128 127 126 126 126 128 131 133 135 136 137 138 138 139 140 142 144 145 145 145 145 146
46 46 47 49 50 50 51 52 54 56 57 59 61 61 62 62 64 66 68 71 73 74 75 76 77 79 81 83 86 89 92 94 97 100 104 109 115 120 124 126 128 128 127 127 126 126 126 128 131 132 134 135 136 136 137 138 139 141 143 144 145 145 146
43 43 44 46 47 48 48 49 50 52 54 57 59 60 60 61 62 64 66 68 70 71 73 74 74 75 77 80 83 86 88 91 93 96 100 104 110 116 120 123 126 127 127 126 125 125 125 126 128 130 131 132 133 133 134 134 136 138 141 143 144 145 146
41 41 42 43 44 45 45 46 47 49 52 54 56 58 59 60 61 63 64 65 67 68 70 71 72 72 74 77 79 82 85 87 90 92 96 100 105 111 116 119 122 124 125 125 124 123 122 123 125 127 128 128 129 129 130 131 134 137 140 142 144 145 146
39 40 40 41 41 42 43 44 45 47 49 51 54 55 57 58 59 61 62 64 65 67 68 69 69 70 71 73 76 79 81 84 86 89 93 97 101 106 110 114 118 120 122 123 123 121 120 120 122 123 125 126 126 127 128 131 133 135 138 140 142 144 144
38 38 39 39 39 39 40 41 43 45 47 48 51 53 54 56 57 58 60 61 63 65 66 67 68 68 69 70 72 74 77 80 83 86 89 93 97 101 105 108 111 115 118 120 121 120 119 118 119 120 122 123 124 126 128 130 131 133 135 137 139 141 143
37 38 38 39 38 38 38 39 40 43 45 46 48 50 52 53 55 56 58 59 60 62 63 65 66 66 67 68 69 71 73 76 79 82 85 89 92 96 99 102 106 109 113 116 118 118 118 117 116 117 119 120 122 124 127 128 130 131 132 133 135 138 141
36 36 36 37 37 37 37 37 38 40 42 44 46 47 49 50 52 54 55 57 58 59 61 62 63 64 65 66 67 69 70 73 76 79 81 84 87 90 93 97 100 104 107 110 113 114 115 115 115 115 116 118 120 122 125 127 127 128 128 130 132 134 138
32 33 34 35 36 36 36 36 36 38 40 42 43 45 46 47 49 51 53 54 56 57 58 59 60 62 63 64 65 67 68 70 72 75 77 80 83 85 88 92 95 98 101 104 107 109 111 113 114 114 114 115 118 120 122 123 123 124 125 127 129 131 134
29 30 31 32 33 34 34 34 34 36 38 40 42 44 45 46 47 48 50 52 53 54 55 56 57 59 60 61 63 64 66 67 69 71 73 76 79 82 84 87 90 93 96 99 101 104 106 109 112 113 113 114 115 116 118 119 120 121 123 124 126 128 130
26 27 28 29 30 31 32 33 33 34 36 38 40 42 43 45 45 47 48 49 49 50 52 53 54 56 58 59 60 62 63 65 66 68 70 73 75 78 80 83 86 89 91 93 96 99 102 105 107 109 110 112 113 114 115 116 117 117 118 120 122 124 126
23 24 25 26 27 28 29 30 31 32 34 35 37 39 41 42 43 44 45 45 45 46 48 50 52 54 55 56 57 58 60 61 63 65 67 69 71 73 76 79 81 83 85 88 91 93 96 99 102 104 106 108 110 113 114 114 114 114 114 115 116 119 121
20 21 21 22 23 25 26 27 28 30 31 33 34 36 38 39 39 40 41 42 43 44 45 48 50 51 52 53 54 55 57 58 60 62 64 66 67 69 72 74 76 78 80 83 85 88 91 94 96 98 100 102 106 111 113 114 113 112 111 111 111 113 116
18 18 18 19 20 21 22 24 25 27 28 30 31 33 35 36 36 37 38 39 40 42 43 45 47 49 50 51 51 52 54 56 58 60 62 63 65 67 69 70 70 73 75 78 80 83 86 88 91 93 94 97 101 106 111 113 112 110 109 109 109 110 111
16 16 17 17 18 19 19 20 22 23 25 27 29 30 32 33 33 34 35 36 37 39 40 42 44 45 47 48 48 49 50 52 54 57 59 61 63 66 65 65 66 68 71 73 75 78 81 83 86 88 90 92 96 100 105 108 108 107 108 109 109 108 108
15 15 15 15 16 17 17 18 20 21 23 25 26 28 29 30 31 32 33 34 35 36 37 38 40 41 43 44 45 45 47 48 50 52 54 57 60 62 61 61 64 66 68 69 71 73 76 79 82 84 87 89 92 96 100 102 103 103 105 107 107 107 106
13 13 14 14 14 14 15 16 18 20 21 23 24 26 27 28 29 30 31 32 33 34 35 35 36 37 39 40 41 42 43 45 46 48 50 53 55 56 56 59 62 64 65 66 68 70 72 74 77 80 83 86 89 92 95 97 98 99 100 102 104 104 105
11 11 12 12 12 12 13 13 15 16 18 20 22 24 25 27 28 29 29 30 31 32 32 33 34 35 36 38 39 40 41 43 44 46 48 49 50 50 52 54 57 60 62 64 65 67 69 70 73 76 79 81 84 87 89 91 92 93 95 97 99 100 101
11 10 10 10 10 10 11 12 12 13 15 16 18 20 22 24 25 27 28 29 30 31 31 32 34 35 36 36 37 38 40 41 43 45 46 47 47 47 48 50 53 55 58 60 62 64 66 68 70 72 74 77 79 82 84 85 87 88 90 92 94 95 96
13 12 11 10 9 9 9 10 11 12 13 14 15 16 18 20 22 24 25 27 28 29 30 31 32 33 34 35 36 36 37 39 40 42 43 45 45 45 47 49 50 51 53 56 58 61 63 65 67 69 70 72 74 76 78 80 82 84 85 87 89 91 92
15 14 13 12 11 10 9 9 9 10 11 12 13 14 15 16 18 19 21 23 25 26 27 28 29 30 31 32 33 34 35 36 37 38 39 40 41 42 43 46 48 49 50 52 54 57 60 62 64 66 67 67 69 71 73 75 77 79 81 83 84 86 87
13 13 13 12 11 11 10 10 9 9 9 10 11 12 13 14 16 17 18 20 22 23 24 26 27 27 28 29 30 32 33 34 35 36 36 37 38 38 39 41 43 45 47 49 51 53 56 59 61 62 63 64 65 67 69 70 72 74 76 78 80 81 82
12 11 11 11 10 10 9 9 9 9 9 9 9 10 11 12 14 15 17 18 19 21 22 23 24 25 26 26 27 29 30 31 32 33 34 35 36 36 36 37 39 41 43 45 47 50 52 54 56 57 59 60 63 64 65 67 69 70 72 73 75 76 77
12 11 11 10 9 9 8 8 8 8 8 8 8 9 9 10 11 13 14 16 17 19 20 21 22 22 23 24 25 26 27 28 29 30 31 32 33 34 34 35 36 37 39 40 42 45 47 49 52 53 55 57 58 60 61 63 65 67 68 70 71 72 73
13 12 11 10 9 9 8 8 7 7 7 7 7 7 7 8 9 10 12 13 14 16 17 18 19 20 21 22 23 24 25 25 26 27 28 29 30 31 32 32 33 35 36 37 38 40 42 45 47 49 52 53 54 56 57 59 62 63 65 66 68 69 69
15 14 13 12 11 10 9 8 7 7 6 6 6 6 6 6 7 8 9 10 11 13 14 15 16 18 19 20 21 22 23 24 24 25 25 26 27 28 29 30 31 32 33 34 35 36 38 40 42 44 46 48 50 51 52 55 57 59 61 62 64 64 65
18 17 17 15 14 13 11 10 8 7 7 6 5 5 4 4 5 5 6 8 9 10 11 12 13 15 16 17 19 20 21 22 22 23 23 24 24 25 26 27 29 30 31 32 33 34 35 37 38 40 41 43 45 46 48 50 53 55 57 58 59 60 61
20 19 18 17 16 15 14 12 11 9 8 7 6 5 4 4 3 4 4 5 6 8 9 10 11 12 13 15 16 17 19 20 21 21 22 22 23 24 24 26 27 28 29 30 31 32 33 34 36 37 38 39 41 42 44 46 49 51 53 54 55 56 57
20 20 19 18 17 16 15 14 13 11 10 9 8 7 5 4 3 3 3 3 4 5 6 7 8 9 11 12 13 14 16 17 18 20 21 21 22 23 24 24 25 26 27 28 29 30 31 33 34 35 36 37 38 39 41 43 44 46 48 50 52 53 55
20 19 19 18 17 17 16 15 13 12 11 10 9 8 7 6 5 4 3 3 3 3 4 5 6 7 8 9 11 12 13 14 16 17 18 19 20 21 22 23 24 25 26 26 27 28 29 30 32 33 34 35 36 37 39 40 41 42 43 45 47 49 51
20 19 19 18 17 17 16 15 14 13 12 10 9 8 8 7 6 5 4 3 3 3 3 4 4 5 6 7 9 10 11 12 13 14 15 17 18 19 20 21 22 23 23 24 25 25 26 27 29 30 31 33 35 36 37 38 39 40 41 42 43 44 46
Wind_Direction
257 257 257 257 257 256 255 254 252 250 247 244 243 243 243 242 241 240 240 241 241 242 242 241 240 239 238 237 237 235 235 236 238 241 242 242 241 240 239 238 237 236 236 238 239 239 239 239 239 239 240 241 242 243 244 244 244 244 245 245 246 247 247
256 255 254 254 255 255 255 254 253 251 249 246 243 242 241 242 242 242 241 240 240 240 241 241 240 239 238 237 236 236 235 234 235 237 240 241 242 241 240 239 239 237 236 236 238 238 239 239 239 239 239 240 241 242 243 244 243 244 244 245 245 246 247
255 254 253 253 253 253 253 253 253 252 250 247 244 241 240 240 241 242 242 241 240 240 240 240 240 240 239 238 237 235 235 234 234 234 236 239 241 242 241 241 240 239 237 236 237 238 238 239 239 239 239 239 240 241 242 243 244 243 244 244 245 246 246
255 254 253 252 251 251 251 252 252 251 250 248 245 242 240 239 239 240 242 242 241 240 239 239 239 239 239 239 238 237 235 234 233 233 234 236 238 240 241 241 241 240 239 237 237 237 238 239 239 239 239 239 239 240 241 242 244 244 244 244 244 245 246
255 254 254 253 251 251 251 251 251 251 250 249 247 244 242 240 239 239 240 241 241 240 239 239 239 239 239 239 239 238 236 235 233 233 232 233 235 237 239 240 241 240 240 239 238 238 238 239 239 239 239 239 239 240 240 241 242 244 244 244 244 245 245
255 254 254 254 253 251 250 249 249 250 250 249 247 245 243 241 240 239 239 239 240 240 239 239 238 238 239 239 239 238 238 236 234 233 232 232 233 235 237 238 239 240 240 240 239 238 238 239 239 239 239 239 239 239 240 240 241 242 244 244 245 245 245
256 255 254 253 253 252 250 248 247 247 248 248 247 245 243 242 241 240 240 240 240 240 239 238 237 237 237 237 238 238 237 237 236 234 233 232 232 233 235 237 239 240 240 240 240 239 239 239 240 240 240 240 240 239 239 239 240 241 243 244 245 245 245
258 256 254 253 253 252 251 250 248 247 246 245 245 245 243 242 241 240 240 240 240 240 240 239 237 236 235 235 236 236 236 236 236 235 234 233 233 233 234 236 237 239 240 241 241 240 239 239 240 240 240 240 240 240 240 240 240 241 242 243 244 245 245
260 258 256 255 253 252 251 250 248 247 245 244 244 243 243 242 240 240 239 239 239 239 240 239 238 237 236 235 235 235 236 235 235 234 234 234 233 233 234 235 236 238 240 241 242 241 240 240 240 240 241 241 241 241 241 240 240 240 240 241 243 243 244
261 260 259 257 255 254 252 250 248 247 246 245 244 243 242 242 241 240 239 239 238 238 239 239 238 238 236 236 235 235 235 236 235 234 234 234 233 233 234 235 236 237 239 241 242 242 242 241 240 240 241 241 241 241 241 241 240 240 240 240 242 243 244
262 261 260 258 256 254 252 250 248 247 246 245 244 243 242 241 241 240 240 239 239 239 239 238 238 238 237 236 236 235 235 236 236 235 234 234 234 234 234 235 236 236 238 240 241 242 243 242 241 241 241 241 241 241 241 241 241 240 240 240 241 242 243
260 260 259 259 257 255 252 249 247 247 246 245 244 243 242 241 241 240 240 239 239 239 239 239 239 238 238 237 236 235 235 235 235 236 236 235 235 235 235 236 236 236 237 238 240 241 242 242 242 241 241 241 240 240 241 241 241 240 240 240 240 241 242
261 261 260 260 259 257 254 251 247 245 245 244 244 244 243 242 241 241 240 240 239 239 238 238 238 238 238 238 237 236 236 235 235 235 236 236 236 236 236 236 236 237 237 238 239 240 241 242 242 242 241 241 240 240 240 240 240 240 240 240 240 240 241
262 261 261 260 260 259 257 254 250 247 244 243 243 243 243 242 242 241 240 240 240 239 239 238 238 238 238 238 238 238 237 236 236 236 236 236 236 236 236 236 236 237 237 238 239 239 240 241 242 242 242 242 241 241 241 240 240 240 240 240 240 240 240
262 261 259 259 259 259 258 256 253 250 247 245 243 242 242 242 241 241 240 240 239 239 239 239 238 238 237 237 237 238 238 238 237 237 236 236 236 236 236 236 236 236 237 238 239 239 240 241 241 242 242 243 242 242 242 241 241 240 240 240 240 240 240
263 261 260 259 257 257 256 255 252 250 248 247 246 244 244 243 242 241 241 240 240 239 239 239 239 238 238 237 237 237 237 238 238 237 237 236 236 236 236 236 236 236 237 237 238 239 239 240 241 241 242 243 244 244 243 243 242 241 240 240 240 241 241
264 262 260 259 258 256 255 254 253 250 248 247 247 247 246 246 245 244 244 243 241 240 239 239 239 239 239 238 238 238 238 238 238 238 238 238 238 237 237 236 236 237 237 237 238 238 239 240 241 241 242 242 243 245 245 244 244 243 242 241 240 240 241
269 265 262 260 259 257 255 254 253 251 249 248 248 248 248 248 247 246 245 245 243 241 240 239 239 239 239 238 238 238 238 238 238 239 239 238 238 238 238 237 237 237 237 238 238 239 239 240 241 241 241 241 241 243 245 246 245 245 244 243 242 241 240
275 271 268 264 261 259 256 254 252 251 250 249 249 249 250 249 249 248 247 246 245 243 242 240 240 239 239 238 238 237 237 237 238 238 239 239 239 238 238 237 237 237 237 237 237 238 239 240 241 241 241 241 240 241 243 245 245 246 246 245 244 242 241
280 276 272 267 264 261 259 256 254 252 251 250 250 249 249 249 249 249 248 247 247 246 244 243 242 241 241 240 239 238 238 238 238 238 239 239 239 239 239 238 237 237 237 237 237 237 238 239 240 241 241 241 241 241 242 244 245 245 245 246 246 245 243
288 284 279 273 269 264 260 257 255 253 252 252 252 251 251 250 250 249 248 248 248 248 247 245 243 242 242 241 240 239 239 239 239 239 239 239 239 240 240 239 238 237 237 237 237 236 236 237 238 238 239 240 240 241 242 243 244 245 245 245 246 246 246
300 295 291 285 279 272 267 261 257 255 253 252 252 252 253 252 252 250 249 249 248 248 248 247 246 244 243 242 241 240 239 239 239 239 239 239 239 239 239 238 238 238 237 237 237 237 236 236 236 237 238 238 239 240 241 242 243 244 244 245 245 246 247
312 306 301 296 290 284 277 270 264 260 257 255 254 253 253 253 253 253 252 251 250 249 248 247 247 245 243 241 240 239 238 238 238 238 238 238 238 238 238 237 237 238 237 237 237 237 237 237 236 236 237 237 238 239 241 242 243 244 244 244 245 246 247
324 318 312 305 298 291 284 277 270 264 261 258 255 253 253 252 252 252 251 251 250 249 248 247 246 245 244 243 242 240 239 238 237 237 238 238 237 236 236 235 235 236 237 237 238 237 238 238 237 237 237 237 238 239 240 241 243 244 244 245 245 246 247
331 327 322 316 309 300 292 284 277 271 266 263 259 256 253 252 251 250 250 249 249 249 249 249 248 248 247 246 245 244 242 241 240 239 239 239 237 235 234 235 234 233 234 235 236 237 237 238 238 238 238 238 238 239 239 240 241 242 244 245 245 246 247
331 329 325 322 318 312 305 296 286 278 272 267 264 261 257 255 252 251 250 250 249 248 248 248 247 247 247 246 246 246 245 245 244 243 242 241 240 237 236 235 235 234 234 234 234 235 236 236 236 236 237 238 239 239 239 240 240 241 242 243 244 245 246
334 331 327 325 322 320 315 309 302 293 282 273 267 263 259 256 253 251 250 249 249 248 247 246 246 245 244 244 244 244 244 244 244 244 244 244 242 240 238 236 236 235 234 234 234 234 235 236 236 236 235 236 237 237 238 238 239 240 240 241 242 243 244
347 342 337 332 329 325 322 318 313 305 297 287 278 271 264 261 257 255 252 251 250 250 250 250 249 249 247 246 245 244 243 242 242 242 242 243 243 242 240 238 237 235 234 234 234 235 236 237 237 237 236 235 235 236 236 236 237 237 238 239 240 241 242
359 355 352 347 342 337 334 328 321 312 302 293 282 274 267 263 260 258 256 254 253 252 251 251 251 251 250 250 248 247 245 244 243 242 241 241 241 241 240 239 238 237 235 234 233 234 235 236 237 237 237 236 235 235 236 236 237 237 237 237 238 238 239
7 5 2 359 355 353 351 346 337 326 314 303 293 282 274 266 262 259 258 257 256 255 254 254 253 252 252 251 251 249 248 247 246 244 242 241 241 241 240 240 239 238 238 236 234 233 233 234 235 237 238 237 236 235 235 236 237 237 238 238 238 238 238
13 13 11 8 7 6 4 0 355 346 335 324 312 300 287 277 268 261 259 258 258 258 258 257 256 255 254 254 252 252 251 249 248 246 244 242 241 240 240 239 239 239 238 238 236 235 234 234 234 235 236 237 238 237 236 236 236 237 238 238 239 239 239
14 15 14 12 11 10 9 7 3 359 353 345 336 323 309 293 280 270 264 260 259 259 258 258 258 258 257 256 255 254 253 251 249 247 245 243 241 240 239 239 238 238 238 238 237 236 236 235 235 235 235 236 236 236 235 235 235 236 237 238 238 239 239
12 13 12 11 10 10 9 8 6 3 1 357 353 348 340 329 313 299 288 278 271 266 262 259 258 258 257 257 256 255 254 252 250 248 245 243 241 239 238 237 237 237 237 237 237 236 236 235 235 235 236 236 235 235 235 235 235 235 236 237 237 237 237
11 10 9 9 8 8 8 7 6 6 5 3 360 358 356 352 344 333 319 307 295 283 273 267 262 259 257 255 254 254 253 252 250 248 245 243 240 238 237 236 236 236 236 236 236 236 235 236 235 235 235 235 236 236 235 235 235 235 236 237 237 236 236
11 10 9 8 7 6 5 5 4 5 6 5 3 2 0 0 359 355 347 334 317 306 296 288 278 269 262 257 254 251 251 250 250 249 247 246 244 242 241 240 239 238 238 237 237 236 236 236 236 235 235 235 235 235 236 236 236 236 236 236 237 237 237
10 10 9 8 8 7 5 3 1 0 360 1 2 2 2 3 4 5 4 359 347 340 329 313 297 283 272 264 258 253 250 250 250 249 248 247 247 247 246 245 245 244 243 243 242 241 240 240 239 238 237 236 235 235 235 236 236 237 237 236 236 237 237
Height
9949 9950 9951 9952 9953 9954 9958 9962 9965 9968 9973 9977 9981 9985 9989 9993 9997 10002 10006 10010 10016 10020 10025 10032 10040 10046 10053 10059 10064 10071 10077 10083 10088 10095 10102 10110 10118 10129 10139 10149 10157 10169 10181 10184 10187 10194 10201 10206 10211 10216 10222 10227 10232 10238 10247 10256 10263 10269 10275 10281 10286 10292 10301
9941 9942 9943 9943 9944 9945 9948 9951 9954 9957 9962 9966 9970 9974 9977 9981 9985 9989 9993 9998 10003 10008 10013 10019 10026 10031 10037 10043 10050 10057 10065 10072 10078 10082 10087 10094 10102 10112 10123 10132 10140 10152 10165 10169 10171 10177 10184 10188 10193 10199 10207 10213 10219 10224 10229 10235 10244 10252 10259 10266 10271 10277 10285
9932 9933 9934 9935 9936 9937 9939 9941 9944 9948 9951 9954 9958 9962 9965 9969 9974 9978 9982 9987 9992 9996 10002 10007 10012 10017 10022 10028 10036 10044 10052 10059 10065 10070 10074 10080 10087 10095 10105 10115 10122 10133 10147 10155 10157 10161 10166 10171 10176 10182 10190 10197 10204 10209 10211 10215 10223 10234 10244 10251 10257 10263 10270
9923 9924 9925 9927 9928 9929 9930 9933 9935 9937 9940 9943 9947 9951 9954 9958 9963 9967 9972 9976 9981 9985 9991 9995 10000 10004 10009 10015 10023 10031 10038 10045 10050 10056 10062 10068 10074 10080 10089 10097 10105 10115 10128 10137 10142 10146 10150 10155 10160 10165 10172 10179 10186 10192 10197 10201 10206 10216 10228 10237 10244 10249 10254
9915 9916 9917 9919 9921 9922 9924 9926 9927 9928 9931 9934 9937 9941 9944 9948 9952 9956 9960 9965 9969 9974 9979 9983 9988 9992 9997 10004 10011 10018 10024 10030 10035 10041 10048 10055 10061 10066 10073 10079 10086 10096 10108 10117 10124 10131 10136 10139 10143 10149 10155 10163 10170 10177 10184 10190 10194 10200 10210 10219 10228 10234 10238
9907 9908 9910 9911 9913 9915 9916 9918 9919 9920 9923 9925 9928 9931 9935 9938 9942 9946 9949 9953 9957 9962 9967 9972 9977 9983 9989 9995 10001 10005 10010 10016 10022 10028 10035 10042 10048 10054 10059 10064 10070 10078 10089 10098 10106 10114 10121 10124 10128 10134 10140 10147 10155 10162 10169 10176 10181 10186 10193 10201 10210 10217 10222
9900 9902 9903 9904 9905 9906 9908 9909 9911 9913 9915 9917 9919 9922 9925 9929 9932 9936 9939 9943 9947 9952 9956 9961 9966 9972 9978 9983 9987 9992 9996 10002 10009 10016 10023 10030 10036 10041 10046 10050 10056 10063 10072 10081 10088 10096 10104 10111 10115 10119 10125 10131 10138 10145 10152 10161 10168 10175 10181 10187 10193 10199 10204
9894 9895 9896 9897 9898 9899 9901 9902 9904 9906 9907 9909 9910 9913 9917 9920 9923 9926 9930 9933 9937 9942 9946 9950 9956 9961 9966 9970 9975 9979 9983 9990 9997 10004 10011 10017 10022 10027 10032 10038 10044 10050 10057 10064 10071 10079 10089 10097 10100 10104 10110 10116 10122 10130 10141 10151 10159 10164 10168 10172 10176 10181 10185
9887 9888 9889 9891 9891 9893 9894 9896 9897 9898 9900 9901 9902 9905 9908 9911 9914 9917 9920 9924 9928 9932 9936 9941 9946 9951 9956 9960 9965 9969 9973 9978 9985 9991 9997 10002 10007 10013 10019 10025 10031 10036 10043 10049 10056 10064 10074 10082 10086 10091 10097 10103 10111 10122 10131 10137 10141 10145 10149 10153 10157 10163 10168
9881 9882 9883 9884 9885 9887 9888 9889 9890 9891 9892 9894 9896 9898 9900 9903 9906 9909 9912 9916 9919 9923 9927 9931 9936 9941 9946 9951 9956 9960 9964 9969 9974 9980 9984 9988 9993 9999 10006 10012 10019 10025 10031 10036 10042 10050 10060 10067 10073 10080 10085 10092 10100 10108 10113 10116 10121 10127 10132 10137 10142 10149 10155
9876 9876 9877 9878 9879 9881 9882 9883 9884 9885 9886 9888 9889 9891 9893 9896 9898 9901 9904 9908 9911 9915 9918 9922 9927 9932 9937 9942 9946 9951 9955 9959 9964 9968 9973 9977 9982 9988 9994 10001 10007 10013 10018 10023 10028 10035 10044 10051 10059 10066 10072 10078 10084 10089 10092 10097 10104 10110 10116 10123 10130 10137 10142
9870 9871 9871 9872 9873 9875 9876 9877 9878 9879 9880 9882 9883 9885 9887 9889 9891 9894 9897 9900 9903 9907 9911 9915 9919 9923 9928 9932 9936 9941 9946 9950 9954 9958 9962 9966 9971 9977 9984 9989 9995 10000 10004 10009 10014 10020 10027 10035 10043 10050 10056 10062 10068 10072 10075 10080 10085 10092 10101 10109 10117 10124 10128
9866 9866 9867 9867 9868 9869 9870 9872 9873 9874 9875 9876 9877 9879 9881 9883 9885 9888 9890 9893 9896 9899 9903 9907 9911 9915 9919 9923 9927 9931 9936 9940 9944 9948 9952 9956 9961 9967 9972 9977 9982 9987 9991 9996 10001 10006 10013 10020 10026 10032 10039 10045 10050 10053 10056 10062 10069 10077 10086 10095 10102 10109 10113
9862 9862 9863 9863 9863 9864 9865 9867 9868 9868 9869 9870 9872 9873 9875 9877 9879 9881 9884 9886 9889 9892 9896 9899 9903 9907 9910 9914 9918 9922 9926 9930 9934 9939 9943 9947 9951 9955 9960 9965 9970 9975 9979 9984 9988 9995 10001 10006 10010 10016 10023 10027 10031 10036 10041 10047 10056 10063 10070 10077 10083 10090 10095
9858 9858 9858 9859 9859 9859 9860 9861 9862 9863 9864 9865 9866 9867 9868 9870 9872 9874 9877 9880 9883 9886 9889 9893 9896 9899 9903 9906 9910 9913 9917 9921 9925 9929 9933 9937 9940 9944 9948 9953 9958 9962 9967 9972 9977 9983 9988 9992 9996 10001 10006 10010 10014 10020 10026 10032 10040 10046 10053 10059 10066 10074 10081
9855 9854 9854 9854 9855 9855 9855 9856 9857 9858 9859 9859 9861 9862 9863 9865 9867 9868 9871 9874 9877 9881 9884 9887 9889 9892 9895 9898 9901 9905 9908 9912 9916 9919 9923 9926 9930 9933 9938 9942 9946 9950 9955 9961 9966 9971 9975 9979 9983 9988 9993 9997 10000 10005 10011 10017 10023 10029 10038 10047 10054 10061 10069
9851 9851 9851 9851 9850 9851 9851 9851 9852 9853 9854 9854 9855 9857 9858 9860 9863 9865 9867 9869 9872 9875 9878 9881 9882 9885 9888 9891 9894 9898 9901 9904 9907 9910 9914 9917 9921 9925 9928 9932 9936 9941 9947 9951 9955 9959 9963 9967 9970 9975 9982 9987 9990 9993 9996 10002 10008 10015 10023 10032 10040 10048 10054
9848 9848 9847 9847 9847 9847 9847 9847 9848 9849 9849 9850 9851 9852 9854 9856 9858 9860 9863 9865 9867 9869 9871 9873 9876 9878 9881 9884 9888 9891 9893 9896 9899 9901 9904 9908 9912 9915 9918 9923 9928 9933 9937 9941 9945 9949 9953 9956 9959 9964 9971 9977 9981 9983 9984 9987 9993 10000 10007 10015 10025 10034 10040
9844 9844 9844 9844 9844 9844 9844 9844 9844 9845 9845 9846 9847 9848 9849 9851 9853 9855 9857 9859 9861 9863 9865 9867 9869 9871 9874 9877 9880 9883 9885 9888 9890 9892 9895 9898 9902 9904 9907 9913 9920 9925 9928 9932 9936 9940 9944 9947 9950 9954 9959 9965 9969 9971 9971 9973 9978 9986 9993 10000 10008 10016 10023
9841 9841 9841 9841 9840 9841 9841 9841 9841 9842 9842 9842 9843 9843 9844 9846 9848 9850 9852 9853 9855 9857 9859 9861 9863 9865 9868 9870 9874 9876 9878 9881 9883 9885 9887 9890 9892 9894 9900 9907 9913 9915 9918 9922 9926 9930 9934 9937 9941 9944 9949 9953 9957 9960 9960 9961 9966 9974 9981 9985 9991 9999 10006
9839 9838 9838 9838 9838 9838 9838 9838 9838 9838 9838 9839 9839 9840 9840 9842 9843 9845 9846 9848 9849 9851 9853 9855 9857 9859 9862 9864 9867 9870 9872 9874 9876 9878 9880 9883 9884 9887 9894 9901 9903 9905 9909 9912 9916 9920 9923 9926 9930 9933 9937 9941 9945 9947 9949 9951 9956 9963 9969 9973 9979 9985 9992
9837 9836 9835 9835 9835 9834 9834 9834 9835 9835 9835 9835 9836 9836 9837 9837 9839 9840 9841 9843 9844 9845 9847 9849 9851 9853 9856 9858 9861 9863 9865 9867 9869 9871 9873 9875 9877 9882 9888 9892 9894 9897 9900 9903 9906 9909 9912 9916 9920 9922 9925 9929 9932 9934 9936 9940 9945 9951 9956 9962 9968 9972 9977
9835 9834 9833 9832 9832 9832 9831 9831 9831 9832 9832 9832 9833 9833 9833 9834 9835 9836 9837 9838 9839 9841 9842 9843 9845 9847 9849 9851 9853 9856 9858 9860 9862 9863 9865 9867 9871 9876 9881 9884 9886 9889 9891 9894 9897 9900 9902 9906 9909 9911 9915 9918 9921 9924 9927 9932 9936 9940 9946 9951 9955 9959 9963
9833 9832 9831 9831 9830 9829 9829 9829 9828 9829 9829 9829 9830 9830 9830 9831 9831 9832 9833 9834 9834 9835 9836 9838 9839 9840 9842 9844 9846 9849 9851 9852 9854 9856 9858 9861 9865 9869 9873 9875 9877 9880 9883 9886 9889 9891 9893 9895 9899 9902 9905 9909 9912 9916 9920 9925 9928 9932 9937 9941 9945 9948 9952
9830 9830 9829 9828 9828 9827 9827 9827 9826 9826 9826 9826 9826 9827 9827 9828 9828 9828 9829 9829 9830 9831 9832 9833 9834 9836 9837 9838 9840 9842 9844 9846 9848 9850 9852 9855 9858 9862 9865 9867 9869 9872 9875 9877 9879 9881 9884 9886 9890 9893 9896 9900 9905 9909 9913 9916 9920 9923 9927 9932 9935 9938 9941
9829 9828 9827 9826 9825 9825 9825 9824 9824 9824 9823 9823 9823 9824 9824 9825 9825 9826 9826 9826 9827 9828 9828 9829 9830 9831 9833 9834 9835 9837 9839 9840 9842 9845 9847 9849 9852 9855 9858 9860 9863 9866 9868 9870 9872 9873 9875 9877 9880 9884 9888 9893 9897 9900 9904 9907 9911 9914 9918 9921 9924 9927 9931
9828 9827 9825 9824 9823 9823 9822 9822 9821 9821 9821 9821 9821 9821 9821 9821 9822 9822 9823 9823 9823 9824 9824 9825 9826 9827 9828 9830 9831 9832 9834 9835 9837 9839 9841 9843 9845 9848 9851 9854 9856 9859 9861 9863 9865 9866 9868 9869 9872 9876 9881 9885 9887 9890 9893 9897 9901 9904 9907 9910 9913 9917 9921
9828 9827 9825 9824 9822 9821 9820 9820 9819 9819 9818 9818 9818 9818 9818 9819 9819 9820 9820 9820 9821 9821 9821 9822 9823 9823 9824 9825 9827 9828 9829 9831 9832 9834 9835 9837 9839 9841 9844 9846 9849 9851 9853 9856 9858 9860 9862 9864 9866 9869 9873 9876 9878 9881 9884 9887 9890 9893 9896 9900 9903 9907 9911
9828 9826 9825 9823 9822 9821 9819 9818 9818 9817 9816 9816 9816 9815 9816 9816 9816 9816 9817 9817 9818 9818 9819 9819 9820 9820 9821 9822 9823 9824 9825 9826 9828 9829 9831 9832 9834 9835 9837 9840 9842 9844 9846 9849 9852 9854 9856 9858 9859 9862 9864 9867 9870 9873 9876 9879 9881 9883 9887 9890 9893 9896 9900
9828 9826 9825 9823 9821 9820 9818 9817 9817 9816 9815 9814 9814 9813 9813 9813 9813 9813 9814 9814 9815 9815 9815 9816 9817 9817 9818 9819 9819 9820 9821 9822 9824 9825 9827 9828 9829 9831 9832 9834 9836 9838 9840 9842 9845 9847 9849 9851 9853 9855 9857 9859 9863 9866 9869 9871 9873 9876 9879 9881 9884 9888 9891
9828 9826 9824 9823 9821 9819 9818 9817 9816 9815 9814 9813 9813 9812 9811 9811 9811 9811 9811 9811 9811 9812 9812 9813 9814 9814 9815 9815 9816 9817 9818 9819 9820 9821 9823 9824 9825 9826 9828 9829 9831 9832 9834 9836 9838 9841 9843 9845 9847 9849 9851 9853 9856 9859 9862 9864 9866 9868 9871 9873 9876 9880 9884
9828 9826 9824 9823 9821 9819 9818 9816 9815 9814 9813 9813 9812 9811 9810 9810 9809 9809 9809 9809 9809 9809 9809 9810 9810 9811 9812 9812 9813 9814 9814 9815 9816 9818 9819 9820 9821 9822 9823 9825 9826 9827 9829 9831 9833 9835 9837 9839 9841 9843 9845 9847 9849 9852 9855 9857 9859 9861 9863 9866 9870 9873 9876
9828 9826 9824 9823 9821 9819 9818 9816 9815 9814 9813 9812 9811 9810 9809 9808 9808 9807 9807 9807 9807 9807 9807 9807 9808 9808 9809 9809 9810 9811 9811 9812 9813 9814 9815 9816 9817 9818 9819 9820 9821 9823 9824 9826 9827 9829 9831 9833 9835 9837 9839 9841 9843 9845 9848 9850 9852 9855 9857 9860 9863 9866 9869
9829 9827 9825 9823 9821 9820 9818 9817 9815 9814 9812 9811 9810 9809 9808 9807 9807 9806 9805 9805 9805 9805 9805 9805 9806 9806 9807 9807 9808 9808 9809 9809 9810 9811 9812 9812 9813 9814 9815 9816 9817 9818 9820 9821 9823 9824 9826 9828 9829 9831 9833 9835 9837 9839 9841 9844 9846 9848 9851 9853 9856 9859 9861
9830 9828 9825 9824 9822 9820 9818 9817 9815 9814 9813 9811 9810 9809 9808 9807 9806 9805 9804 9804 9804 9804 9804 9804 9804 9804 9804 9805 9805 9806 9806 9807 9807 9808 9809 9810 9810 9811 9812 9813 9814 9815 9816 9817 9819 9820 9822 9823 9824 9826 9828 9830 9832 9834 9836 9838 9840 9842 9845 9847 9850 9853 9855
9831 9828 9826 9824 9822 9820 9819 9817 9815 9814 9813 9811 9810 9809 9808 9807 9806 9805 9804 9803 9803 9802 9802 9802 9802 9803 9803 9803 9803 9804 9804 9805 9805 9806 9807 9807 9808 9809 9810 9811 9812 9812 9813 9814 9815 9817 9818 9819 9820 9822 9823 9825 9826 9828 9830 9832 9834 9836 9839 9841 9844 9846 9849